Year,Month,Day,Hour,Minute,Value (Times are PST for temperature in C)
2016,03,29,00,00,5.10
2016,03,29,00,01,5.10
2016,03,29,00,02,5.00
2016,03,29,00,03,5.00
2016,03,29,00,04,5.00
2016,03,29,00,05,5.00
2016,03,29,00,06,5.00
2016,03,29,00,07,5.00
2016,03,29,00,08,5.00
2016,03,29,00,09,5.00
2016,03,29,00,10,5.00
2016,03,29,00,11,5.00
2016,03,29,00,12,5.00
2016,03,29,00,13,5.00
2016,03,29,00,14,5.00
2016,03,29,00,15,4.90
2016,03,29,00,16,4.90
2016,03,29,00,17,4.90
2016,03,29,00,18,4.90
2016,03,29,00,19,4.90
2016,03,29,00,20,4.90
2016,03,29,00,21,4.80
2016,03,29,00,22,4.80
2016,03,29,00,23,4.80
2016,03,29,00,24,4.80
2016,03,29,00,25,4.80
2016,03,29,00,26,4.80
2016,03,29,00,27,4.80
2016,03,29,00,28,4.80
2016,03,29,00,29,4.80
2016,03,29,00,30,4.80
2016,03,29,00,31,4.80
2016,03,29,00,32,4.80
2016,03,29,00,33,4.70
2016,03,29,00,34,4.70
2016,03,29,00,35,4.70
2016,03,29,00,36,4.70
2016,03,29,00,37,4.70
2016,03,29,00,38,4.70
2016,03,29,00,39,4.70
2016,03,29,00,40,4.60
2016,03,29,00,41,4.60
2016,03,29,00,42,4.60
2016,03,29,00,43,4.60
2016,03,29,00,44,4.60
2016,03,29,00,45,4.60
2016,03,29,00,46,4.60
2016,03,29,00,47,4.60
2016,03,29,00,48,4.60
2016,03,29,00,49,4.60
2016,03,29,00,50,4.60
2016,03,29,00,51,4.60
2016,03,29,00,52,4.60
2016,03,29,00,53,4.50
2016,03,29,00,54,4.50
2016,03,29,00,55,4.50
2016,03,29,00,56,4.50
2016,03,29,00,57,4.50
2016,03,29,00,58,4.50
2016,03,29,00,59,4.40
2016,03,29,01,00,4.40
2016,03,29,01,01,4.40
2016,03,29,01,02,4.40
2016,03,29,01,03,4.40
2016,03,29,01,04,4.40
2016,03,29,01,05,4.40
2016,03,29,01,06,4.40
2016,03,29,01,07,4.40
2016,03,29,01,08,4.30
2016,03,29,01,09,4.30
2016,03,29,01,10,4.30
2016,03,29,01,11,4.30
2016,03,29,01,12,4.30
2016,03,29,01,13,4.30
2016,03,29,01,14,4.30
2016,03,29,01,15,4.30
2016,03,29,01,16,4.30
2016,03,29,01,17,4.30
2016,03,29,01,18,4.30
2016,03,29,01,19,4.30
2016,03,29,01,20,4.30
2016,03,29,01,21,4.30
2016,03,29,01,22,4.30
2016,03,29,01,23,4.30
2016,03,29,01,24,4.30
2016,03,29,01,25,4.30
2016,03,29,01,26,4.30
2016,03,29,01,27,4.30
2016,03,29,01,28,4.30
2016,03,29,01,29,4.30
2016,03,29,01,30,4.30
2016,03,29,01,31,4.30
2016,03,29,01,32,4.30
2016,03,29,01,33,4.30
2016,03,29,01,34,4.30
2016,03,29,01,35,4.20
2016,03,29,01,36,4.20
2016,03,29,01,37,4.20
2016,03,29,01,38,4.20
2016,03,29,01,39,4.20
2016,03,29,01,40,4.20
2016,03,29,01,41,4.20
2016,03,29,01,42,4.20
2016,03,29,01,43,4.20
2016,03,29,01,44,4.20
2016,03,29,01,45,4.20
2016,03,29,01,46,4.20
2016,03,29,01,47,4.20
2016,03,29,01,48,4.20
2016,03,29,01,49,4.20
2016,03,29,01,50,4.30
2016,03,29,01,51,4.30
2016,03,29,01,52,4.30
2016,03,29,01,53,4.30
2016,03,29,01,54,4.30
2016,03,29,01,55,4.30
2016,03,29,01,56,4.30
2016,03,29,01,57,4.30
2016,03,29,01,58,4.30
2016,03,29,01,59,4.30
2016,03,29,02,00,4.30
2016,03,29,02,01,4.30
2016,03,29,02,02,4.30
2016,03,29,02,03,4.30
2016,03,29,02,04,4.30
2016,03,29,02,05,4.30
2016,03,29,02,06,4.30
2016,03,29,02,07,4.30
2016,03,29,02,08,4.30
2016,03,29,02,09,4.30
2016,03,29,02,10,4.30
2016,03,29,02,11,4.30
2016,03,29,02,12,4.20
2016,03,29,02,13,4.20
2016,03,29,02,14,4.20
2016,03,29,02,15,4.20
2016,03,29,02,16,4.20
2016,03,29,02,17,4.20
2016,03,29,02,18,4.20
2016,03,29,02,19,4.10
2016,03,29,02,20,4.10
2016,03,29,02,21,4.20
2016,03,29,02,22,4.20
2016,03,29,02,23,4.30
2016,03,29,02,24,4.30
2016,03,29,02,25,4.30
2016,03,29,02,26,4.30
2016,03,29,02,27,4.40
2016,03,29,02,28,4.50
2016,03,29,02,29,4.60
2016,03,29,02,30,4.70
2016,03,29,02,31,4.80
2016,03,29,02,32,4.80
2016,03,29,02,33,4.80
2016,03,29,02,34,4.90
2016,03,29,02,35,4.90
2016,03,29,02,36,4.80
2016,03,29,02,37,4.80
2016,03,29,02,38,4.70
2016,03,29,02,39,4.70
2016,03,29,02,40,4.60
2016,03,29,02,41,4.60
2016,03,29,02,42,4.60
2016,03,29,02,43,4.60
2016,03,29,02,44,4.60
2016,03,29,02,45,4.60
2016,03,29,02,46,4.60
2016,03,29,02,47,4.60
2016,03,29,02,48,4.70
2016,03,29,02,49,4.70
2016,03,29,02,50,4.70
2016,03,29,02,51,4.80
2016,03,29,02,52,4.80
2016,03,29,02,53,4.80
2016,03,29,02,54,4.90
2016,03,29,02,55,4.90
2016,03,29,02,56,4.90
2016,03,29,02,57,4.90
2016,03,29,02,58,4.90
2016,03,29,02,59,4.90
2016,03,29,03,00,4.90
2016,03,29,03,01,4.90
2016,03,29,03,02,5.00
2016,03,29,03,03,5.10
2016,03,29,03,04,5.20
2016,03,29,03,05,5.30
2016,03,29,03,06,5.30
2016,03,29,03,07,5.40
2016,03,29,03,08,5.50
2016,03,29,03,09,5.50
2016,03,29,03,10,5.60
2016,03,29,03,11,5.60
2016,03,29,03,12,5.70
2016,03,29,03,13,5.80
2016,03,29,03,14,6.00
2016,03,29,03,15,6.10
2016,03,29,03,16,6.30
2016,03,29,03,17,6.40
2016,03,29,03,18,6.50
2016,03,29,03,19,6.60
2016,03,29,03,20,6.70
2016,03,29,03,21,6.80
2016,03,29,03,22,6.80
2016,03,29,03,23,6.90
2016,03,29,03,24,6.90
2016,03,29,03,25,6.90
2016,03,29,03,26,6.90
2016,03,29,03,27,6.90
2016,03,29,03,28,6.90
2016,03,29,03,29,7.00
2016,03,29,03,30,7.10
2016,03,29,03,31,7.10
2016,03,29,03,32,7.30
2016,03,29,03,33,7.30
2016,03,29,03,34,7.30
2016,03,29,03,35,7.40
2016,03,29,03,36,7.40
2016,03,29,03,37,7.50
2016,03,29,03,38,7.50
2016,03,29,03,39,7.50
2016,03,29,03,40,7.60
2016,03,29,03,41,7.60
2016,03,29,03,42,7.60
2016,03,29,03,43,7.60
2016,03,29,03,44,7.60
2016,03,29,03,45,7.60
2016,03,29,03,46,7.60
2016,03,29,03,47,7.60
2016,03,29,03,48,7.60
2016,03,29,03,49,7.60
2016,03,29,03,50,7.60
2016,03,29,03,51,7.50
2016,03,29,03,52,7.50
2016,03,29,03,53,7.50
2016,03,29,03,54,7.50
2016,03,29,03,55,7.50
2016,03,29,03,56,7.50
2016,03,29,03,57,7.50
2016,03,29,03,58,7.50
2016,03,29,03,59,7.60
2016,03,29,04,00,7.60
2016,03,29,04,01,7.60
2016,03,29,04,02,7.60
2016,03,29,04,03,7.60
2016,03,29,04,04,7.70
2016,03,29,04,05,7.60
2016,03,29,04,06,7.60
2016,03,29,04,07,7.60
2016,03,29,04,08,7.60
2016,03,29,04,09,7.50
2016,03,29,04,10,7.50
2016,03,29,04,11,7.30
2016,03,29,04,12,7.20
2016,03,29,04,13,7.10
2016,03,29,04,14,7.00
2016,03,29,04,15,6.90
2016,03,29,04,16,6.80
2016,03,29,04,17,6.70
2016,03,29,04,18,6.60
2016,03,29,04,19,6.50
2016,03,29,04,20,6.40
2016,03,29,04,21,6.40
2016,03,29,04,22,6.30
2016,03,29,04,23,6.30
2016,03,29,04,24,6.30
2016,03,29,04,25,6.30
2016,03,29,04,26,6.20
2016,03,29,04,27,6.20
2016,03,29,04,28,6.20
2016,03,29,04,29,6.20
2016,03,29,04,30,6.20
2016,03,29,04,31,6.20
2016,03,29,04,32,6.30
2016,03,29,04,33,6.30
2016,03,29,04,34,6.30
2016,03,29,04,35,6.40
2016,03,29,04,36,6.50
2016,03,29,04,37,6.60
2016,03,29,04,38,6.70
2016,03,29,04,39,6.70
2016,03,29,04,40,6.80
2016,03,29,04,41,6.80
2016,03,29,04,42,6.90
2016,03,29,04,43,6.90
2016,03,29,04,44,7.00
2016,03,29,04,45,7.00
2016,03,29,04,46,7.10
2016,03,29,04,47,7.20
2016,03,29,04,48,7.30
2016,03,29,04,49,7.30
2016,03,29,04,50,7.30
2016,03,29,04,51,7.30
2016,03,29,04,52,7.30
2016,03,29,04,53,7.40
2016,03,29,04,54,7.40
2016,03,29,04,55,7.40
2016,03,29,04,56,7.40
2016,03,29,04,57,7.40
2016,03,29,04,58,7.50
2016,03,29,04,59,7.50
2016,03,29,05,00,7.50
2016,03,29,05,01,7.50
2016,03,29,05,02,7.40
2016,03,29,05,03,7.40
2016,03,29,05,04,7.40
2016,03,29,05,05,7.40
2016,03,29,05,06,7.30
2016,03,29,05,07,7.30
2016,03,29,05,08,7.20
2016,03,29,05,09,7.20
2016,03,29,05,10,7.10
2016,03,29,05,11,7.10
2016,03,29,05,12,7.00
2016,03,29,05,13,7.00
2016,03,29,05,14,6.90
2016,03,29,05,15,6.90
2016,03,29,05,16,6.90
2016,03,29,05,17,6.80
2016,03,29,05,18,6.80
2016,03,29,05,19,6.80
2016,03,29,05,20,6.70
2016,03,29,05,21,6.60
2016,03,29,05,22,6.50
2016,03,29,05,23,6.40
2016,03,29,05,24,6.30
2016,03,29,05,25,6.30
2016,03,29,05,26,6.20
2016,03,29,05,27,6.10
2016,03,29,05,28,6.00
2016,03,29,05,29,5.90
2016,03,29,05,30,5.80
2016,03,29,05,31,5.70
2016,03,29,05,32,5.60
2016,03,29,05,33,5.50
2016,03,29,05,34,5.40
2016,03,29,05,35,5.30
2016,03,29,05,36,5.20
2016,03,29,05,37,5.10
2016,03,29,05,38,5.00
2016,03,29,05,39,5.00
2016,03,29,05,40,4.90
2016,03,29,05,41,4.90
2016,03,29,05,42,4.90
2016,03,29,05,43,4.80
2016,03,29,05,44,4.80
2016,03,29,05,45,4.80
2016,03,29,05,46,4.80
2016,03,29,05,47,4.80
2016,03,29,05,48,4.80
2016,03,29,05,49,4.80
2016,03,29,05,50,4.90
2016,03,29,05,51,4.90
2016,03,29,05,52,5.00
2016,03,29,05,53,5.10
2016,03,29,05,54,5.20
2016,03,29,05,55,5.30
2016,03,29,05,56,5.30
2016,03,29,05,57,5.30
2016,03,29,05,58,5.30
2016,03,29,05,59,5.30
2016,03,29,06,00,5.30
2016,03,29,06,01,5.30
2016,03,29,06,02,5.30
2016,03,29,06,03,5.30
2016,03,29,06,04,5.40
2016,03,29,06,05,5.40
2016,03,29,06,06,5.40
2016,03,29,06,07,5.40
2016,03,29,06,08,5.40
2016,03,29,06,09,5.40
2016,03,29,06,10,5.30
2016,03,29,06,11,5.30
2016,03,29,06,12,5.30
2016,03,29,06,13,5.30
2016,03,29,06,14,5.20
2016,03,29,06,15,5.20
2016,03,29,06,16,5.10
2016,03,29,06,17,5.00
2016,03,29,06,18,5.00
2016,03,29,06,19,4.90
2016,03,29,06,20,4.90
2016,03,29,06,21,4.80
2016,03,29,06,22,4.80
2016,03,29,06,23,4.80
2016,03,29,06,24,4.80
2016,03,29,06,25,4.70
2016,03,29,06,26,4.70
2016,03,29,06,27,4.70
2016,03,29,06,28,4.70
2016,03,29,06,29,4.70
2016,03,29,06,30,4.60
2016,03,29,06,31,4.60
2016,03,29,06,32,4.70
2016,03,29,06,33,4.70
2016,03,29,06,34,4.60
2016,03,29,06,35,4.60
2016,03,29,06,36,4.50
2016,03,29,06,37,4.40
2016,03,29,06,38,4.40
2016,03,29,06,39,4.30
2016,03,29,06,40,4.30
2016,03,29,06,41,4.20
2016,03,29,06,42,4.20
2016,03,29,06,43,4.10
2016,03,29,06,44,4.10
2016,03,29,06,45,4.10
2016,03,29,06,46,4.00
2016,03,29,06,47,4.00
2016,03,29,06,48,4.00
2016,03,29,06,49,4.00
2016,03,29,06,50,4.00
2016,03,29,06,51,4.00
2016,03,29,06,52,4.00
2016,03,29,06,53,4.00
2016,03,29,06,54,4.00
2016,03,29,06,55,4.00
2016,03,29,06,56,4.00
2016,03,29,06,57,4.00
2016,03,29,06,58,4.00
2016,03,29,06,59,4.00
2016,03,29,07,00,4.00
2016,03,29,07,01,4.10
2016,03,29,07,02,4.10
2016,03,29,07,03,4.10
2016,03,29,07,04,4.10
2016,03,29,07,05,4.10
2016,03,29,07,06,4.20
2016,03,29,07,07,4.20
2016,03,29,07,08,4.20
2016,03,29,07,09,4.20
2016,03,29,07,10,4.20
2016,03,29,07,11,4.20
2016,03,29,07,12,4.20
2016,03,29,07,13,4.20
2016,03,29,07,14,4.20
2016,03,29,07,15,4.20
2016,03,29,07,16,4.20
2016,03,29,07,17,4.20
2016,03,29,07,18,4.20
2016,03,29,07,19,4.20
2016,03,29,07,20,4.20
2016,03,29,07,21,4.20
2016,03,29,07,22,4.20
2016,03,29,07,23,4.20
2016,03,29,07,24,4.20
2016,03,29,07,25,4.20
2016,03,29,07,26,4.20
2016,03,29,07,27,4.20
2016,03,29,07,28,4.20
2016,03,29,07,29,4.20
2016,03,29,07,30,4.20
2016,03,29,07,31,4.20
2016,03,29,07,32,4.20
2016,03,29,07,33,4.20
2016,03,29,07,34,4.20
2016,03,29,07,35,4.30
2016,03,29,07,36,4.30
2016,03,29,07,37,4.40
2016,03,29,07,38,4.40
2016,03,29,07,39,4.50
2016,03,29,07,40,4.50
2016,03,29,07,41,4.60
2016,03,29,07,42,4.70
2016,03,29,07,43,4.70
2016,03,29,07,44,4.70
2016,03,29,07,45,4.70
2016,03,29,07,46,4.80
2016,03,29,07,47,4.80
2016,03,29,07,48,4.80
2016,03,29,07,49,4.90
2016,03,29,07,50,4.90
2016,03,29,07,51,5.00
2016,03,29,07,52,5.10
2016,03,29,07,53,5.20
2016,03,29,07,54,5.20
2016,03,29,07,55,5.30
2016,03,29,07,56,5.40
2016,03,29,07,57,5.50
2016,03,29,07,58,5.60
2016,03,29,07,59,5.70
2016,03,29,08,00,5.90
2016,03,29,08,01,6.00
2016,03,29,08,02,6.10
2016,03,29,08,03,6.30
2016,03,29,08,04,6.40
2016,03,29,08,05,6.50
2016,03,29,08,06,6.60
2016,03,29,08,07,6.70
2016,03,29,08,08,6.80
2016,03,29,08,09,7.00
2016,03,29,08,10,7.10
2016,03,29,08,11,7.20
2016,03,29,08,12,7.30
2016,03,29,08,13,7.50
2016,03,29,08,14,7.50
2016,03,29,08,15,7.60
2016,03,29,08,16,7.70
2016,03,29,08,17,7.80
2016,03,29,08,18,7.90
2016,03,29,08,19,8.10
2016,03,29,08,20,8.20
2016,03,29,08,21,8.20
2016,03,29,08,22,8.30
2016,03,29,08,23,8.30
2016,03,29,08,24,8.40
2016,03,29,08,25,8.50
2016,03,29,08,26,8.60
2016,03,29,08,27,8.70
2016,03,29,08,28,8.70
2016,03,29,08,29,8.80
2016,03,29,08,30,8.90
2016,03,29,08,31,8.90
2016,03,29,08,32,9.00
2016,03,29,08,33,9.10
2016,03,29,08,34,9.20
2016,03,29,08,35,9.20
2016,03,29,08,36,9.20
2016,03,29,08,37,9.30
2016,03,29,08,38,9.40
2016,03,29,08,39,9.50
2016,03,29,08,40,9.60
2016,03,29,08,41,9.60
2016,03,29,08,42,9.70
2016,03,29,08,43,9.70
2016,03,29,08,44,9.80
2016,03,29,08,45,9.80
2016,03,29,08,46,9.90
2016,03,29,08,47,9.90
2016,03,29,08,48,9.90
2016,03,29,08,49,9.90
2016,03,29,08,50,9.90
2016,03,29,08,51,9.90
2016,03,29,08,52,9.90
2016,03,29,08,53,9.90
2016,03,29,08,54,9.90
2016,03,29,08,55,9.90
2016,03,29,08,56,9.90
2016,03,29,08,57,9.90
2016,03,29,08,58,10.00
2016,03,29,08,59,10.00
2016,03,29,09,00,10.00
2016,03,29,09,01,10.00
2016,03,29,09,02,10.00
2016,03,29,09,03,10.00
2016,03,29,09,04,10.10
2016,03,29,09,05,10.10
2016,03,29,09,06,10.10
2016,03,29,09,07,10.10
2016,03,29,09,08,10.10
2016,03,29,09,09,10.10
2016,03,29,09,10,10.10
2016,03,29,09,11,10.10
2016,03,29,09,12,10.10
2016,03,29,09,13,10.20
2016,03,29,09,14,10.20
2016,03,29,09,15,10.30
2016,03,29,09,16,10.30
2016,03,29,09,17,10.30
2016,03,29,09,18,10.40
2016,03,29,09,19,10.40
2016,03,29,09,20,10.40
2016,03,29,09,21,10.50
2016,03,29,09,22,10.50
2016,03,29,09,23,10.50
2016,03,29,09,24,10.50
2016,03,29,09,25,10.40
2016,03,29,09,26,10.40
2016,03,29,09,27,10.40
2016,03,29,09,28,10.40
2016,03,29,09,29,10.40
2016,03,29,09,30,10.40
2016,03,29,09,31,10.40
2016,03,29,09,32,10.40
2016,03,29,09,33,10.40
2016,03,29,09,34,10.50
2016,03,29,09,35,10.50
2016,03,29,09,36,10.50
2016,03,29,09,37,10.50
2016,03,29,09,38,10.50
2016,03,29,09,39,10.40
2016,03,29,09,40,10.40
2016,03,29,09,41,10.40
2016,03,29,09,42,10.40
2016,03,29,09,43,10.40
2016,03,29,09,44,10.50
2016,03,29,09,45,10.50
2016,03,29,09,46,10.60
2016,03,29,09,47,10.60
2016,03,29,09,48,10.60
2016,03,29,09,49,10.60
2016,03,29,09,50,10.60
2016,03,29,09,51,10.60
2016,03,29,09,52,10.60
2016,03,29,09,53,10.60
2016,03,29,09,54,10.60
2016,03,29,09,55,10.70
2016,03,29,09,56,10.70
2016,03,29,09,57,10.70
2016,03,29,09,58,10.80
2016,03,29,09,59,10.80
2016,03,29,10,00,10.80
2016,03,29,10,01,10.80
2016,03,29,10,02,10.80
2016,03,29,10,03,10.80
2016,03,29,10,04,10.90
2016,03,29,10,05,11.00
2016,03,29,10,06,11.00
2016,03,29,10,07,11.10
2016,03,29,10,08,11.10
2016,03,29,10,09,11.10
2016,03,29,10,10,11.10
2016,03,29,10,11,11.10
2016,03,29,10,12,11.10
2016,03,29,10,13,11.00
2016,03,29,10,14,11.10
2016,03,29,10,15,11.10
2016,03,29,10,16,11.10
2016,03,29,10,17,11.10
2016,03,29,10,18,11.20
2016,03,29,10,19,11.20
2016,03,29,10,20,11.20
2016,03,29,10,21,11.20
2016,03,29,10,22,11.20
2016,03,29,10,23,11.20
2016,03,29,10,24,11.20
2016,03,29,10,25,11.30
2016,03,29,10,26,11.20
2016,03,29,10,27,11.10
2016,03,29,10,28,11.10
2016,03,29,10,29,11.00
2016,03,29,10,30,11.10
2016,03,29,10,31,11.10
2016,03,29,10,32,11.20
2016,03,29,10,33,11.30
2016,03,29,10,34,11.30
2016,03,29,10,35,11.40
2016,03,29,10,36,11.40
2016,03,29,10,37,11.40
2016,03,29,10,38,11.30
2016,03,29,10,39,11.30
2016,03,29,10,40,11.40
2016,03,29,10,41,11.40
2016,03,29,10,42,11.40
2016,03,29,10,43,11.50
2016,03,29,10,44,11.60
2016,03,29,10,45,11.70
2016,03,29,10,46,11.70
2016,03,29,10,47,11.80
2016,03,29,10,48,11.80
2016,03,29,10,49,11.80
2016,03,29,10,50,11.70
2016,03,29,10,51,11.70
2016,03,29,10,52,11.50
2016,03,29,10,53,11.50
2016,03,29,10,54,11.40
2016,03,29,10,55,11.40
2016,03,29,10,56,11.40
2016,03,29,10,57,11.50
2016,03,29,10,58,11.50
2016,03,29,10,59,11.60
2016,03,29,11,00,11.60
2016,03,29,11,01,11.60
2016,03,29,11,02,11.60
2016,03,29,11,03,11.60
2016,03,29,11,04,11.60
2016,03,29,11,05,11.60
2016,03,29,11,06,11.70
2016,03,29,11,07,11.70
2016,03,29,11,08,11.70
2016,03,29,11,09,11.70
2016,03,29,11,10,11.70
2016,03,29,11,11,11.80
2016,03,29,11,12,11.80
2016,03,29,11,13,11.80
2016,03,29,11,14,11.80
2016,03,29,11,15,11.90
2016,03,29,11,16,11.90
2016,03,29,11,17,12.00
2016,03,29,11,18,12.00
2016,03,29,11,19,12.10
2016,03,29,11,20,12.10
2016,03,29,11,21,12.10
2016,03,29,11,22,12.10
2016,03,29,11,23,12.10
2016,03,29,11,24,12.10
2016,03,29,11,25,12.20
2016,03,29,11,26,12.20
2016,03,29,11,27,12.30
2016,03,29,11,28,12.40
2016,03,29,11,29,12.50
2016,03,29,11,30,12.60
2016,03,29,11,31,12.50
2016,03,29,11,32,12.50
2016,03,29,11,33,12.40
2016,03,29,11,34,12.40
2016,03,29,11,35,12.50
2016,03,29,11,36,12.40
2016,03,29,11,37,12.50
2016,03,29,11,38,12.50
2016,03,29,11,39,12.60
2016,03,29,11,40,12.70
2016,03,29,11,41,12.80
2016,03,29,11,42,12.80
2016,03,29,11,43,12.80
2016,03,29,11,44,12.80
2016,03,29,11,45,12.80
2016,03,29,11,46,12.90
2016,03,29,11,47,12.90
2016,03,29,11,48,12.90
2016,03,29,11,49,12.90
2016,03,29,11,50,12.90
2016,03,29,11,51,12.90
2016,03,29,11,52,12.90
2016,03,29,11,53,12.90
2016,03,29,11,54,12.90
2016,03,29,11,55,12.90
2016,03,29,11,56,12.80
2016,03,29,11,57,12.80
2016,03,29,11,58,12.80
2016,03,29,11,59,12.90
2016,03,29,12,00,13.00
2016,03,29,12,01,13.10
2016,03,29,12,02,13.00
2016,03,29,12,03,13.00
2016,03,29,12,04,13.00
2016,03,29,12,05,13.00
2016,03,29,12,06,13.00
2016,03,29,12,07,13.00
2016,03,29,12,08,13.00
2016,03,29,12,09,13.10
2016,03,29,12,10,13.10
2016,03,29,12,11,13.10
2016,03,29,12,12,13.10
2016,03,29,12,13,13.00
2016,03,29,12,14,13.00
2016,03,29,12,15,13.00
2016,03,29,12,16,13.10
2016,03,29,12,17,13.10
2016,03,29,12,18,13.20
2016,03,29,12,19,13.20
2016,03,29,12,20,13.20
2016,03,29,12,21,13.10
2016,03,29,12,22,13.20
2016,03,29,12,23,13.20
2016,03,29,12,24,13.30
2016,03,29,12,25,13.40
2016,03,29,12,26,13.50
2016,03,29,12,27,13.50
2016,03,29,12,28,13.60
2016,03,29,12,29,13.60
2016,03,29,12,30,13.60
2016,03,29,12,31,13.80
2016,03,29,12,32,13.80
2016,03,29,12,33,13.80
2016,03,29,12,34,13.80
2016,03,29,12,35,13.80
2016,03,29,12,36,13.70
2016,03,29,12,37,13.70
2016,03,29,12,38,13.70
2016,03,29,12,39,13.80
2016,03,29,12,40,14.00
2016,03,29,12,41,14.10
2016,03,29,12,42,14.10
2016,03,29,12,43,14.20
2016,03,29,12,44,14.20
2016,03,29,12,45,14.20
2016,03,29,12,46,14.20
2016,03,29,12,47,14.30
2016,03,29,12,48,14.30
2016,03,29,12,49,14.30
2016,03,29,12,50,14.30
2016,03,29,12,51,14.20
2016,03,29,12,52,14.20
2016,03,29,12,53,14.20
2016,03,29,12,54,14.20
2016,03,29,12,55,14.20
2016,03,29,12,56,14.30
2016,03,29,12,57,14.30
2016,03,29,12,58,14.30
2016,03,29,12,59,14.30
2016,03,29,13,00,14.40
2016,03,29,13,01,14.40
2016,03,29,13,02,14.50
2016,03,29,13,03,14.50
2016,03,29,13,04,14.40
2016,03,29,13,05,14.40
2016,03,29,13,06,14.40
2016,03,29,13,07,14.30
2016,03,29,13,08,14.20
2016,03,29,13,09,14.30
2016,03,29,13,10,14.30
2016,03,29,13,11,14.40
2016,03,29,13,12,14.50
2016,03,29,13,13,14.50
2016,03,29,13,14,14.60
2016,03,29,13,15,14.60
2016,03,29,13,16,14.70
2016,03,29,13,17,14.80
2016,03,29,13,18,14.90
2016,03,29,13,19,14.90
2016,03,29,13,20,14.90
2016,03,29,13,21,14.90
2016,03,29,13,22,14.80
2016,03,29,13,23,14.80
2016,03,29,13,24,14.70
2016,03,29,13,25,14.70
2016,03,29,13,26,14.70
2016,03,29,13,27,14.70
2016,03,29,13,28,14.70
2016,03,29,13,29,14.80
2016,03,29,13,30,14.80
2016,03,29,13,31,14.90
2016,03,29,13,32,14.90
2016,03,29,13,33,15.00
2016,03,29,13,34,15.00
2016,03,29,13,35,14.90
2016,03,29,13,36,14.90
2016,03,29,13,37,14.90
2016,03,29,13,38,15.00
2016,03,29,13,39,15.10
2016,03,29,13,40,15.10
2016,03,29,13,41,15.10
2016,03,29,13,42,15.10
2016,03,29,13,43,15.10
2016,03,29,13,44,15.10
2016,03,29,13,45,14.90
2016,03,29,13,46,14.90
2016,03,29,13,47,14.90
2016,03,29,13,48,14.90
2016,03,29,13,49,15.00
2016,03,29,13,50,15.00
2016,03,29,13,51,15.10
2016,03,29,13,52,15.20
2016,03,29,13,53,15.20
2016,03,29,13,54,15.20
2016,03,29,13,55,15.30
2016,03,29,13,56,15.30
2016,03,29,13,57,15.40
2016,03,29,13,58,15.40
2016,03,29,13,59,15.40
2016,03,29,14,00,15.40
2016,03,29,14,01,15.40
2016,03,29,14,02,15.40
2016,03,29,14,03,15.40
2016,03,29,14,04,15.40
2016,03,29,14,05,15.40
2016,03,29,14,06,15.40
2016,03,29,14,07,15.50
2016,03,29,14,08,15.50
2016,03,29,14,09,15.50
2016,03,29,14,10,15.50
2016,03,29,14,11,15.60
2016,03,29,14,12,15.60
2016,03,29,14,13,15.50
2016,03,29,14,14,15.50
2016,03,29,14,15,15.40
2016,03,29,14,16,15.50
2016,03,29,14,17,15.50
2016,03,29,14,18,15.60
2016,03,29,14,19,15.60
2016,03,29,14,20,15.60
2016,03,29,14,21,15.60
2016,03,29,14,22,15.70
2016,03,29,14,23,15.70
2016,03,29,14,24,15.60
2016,03,29,14,25,15.50
2016,03,29,14,26,15.50
2016,03,29,14,27,15.50
2016,03,29,14,28,15.50
2016,03,29,14,29,15.40
2016,03,29,14,30,15.30
2016,03,29,14,31,15.30
2016,03,29,14,32,15.30
2016,03,29,14,33,15.30
2016,03,29,14,34,15.20
2016,03,29,14,35,15.20
2016,03,29,14,36,15.20
2016,03,29,14,37,15.20
2016,03,29,14,38,15.20
2016,03,29,14,39,15.20
2016,03,29,14,40,15.20
2016,03,29,14,41,15.20
2016,03,29,14,42,15.20
2016,03,29,14,43,15.30
2016,03,29,14,44,15.30
2016,03,29,14,45,15.30
2016,03,29,14,46,15.30
2016,03,29,14,47,15.30
2016,03,29,14,48,15.30
2016,03,29,14,49,15.40
2016,03,29,14,50,15.40
2016,03,29,14,51,15.40
2016,03,29,14,52,15.40
2016,03,29,14,53,15.40
2016,03,29,14,54,15.40
2016,03,29,14,55,15.40
2016,03,29,14,56,15.40
2016,03,29,14,57,15.40
2016,03,29,14,58,15.40
2016,03,29,14,59,15.30
2016,03,29,15,00,15.30
2016,03,29,15,01,15.30
2016,03,29,15,02,15.30
2016,03,29,15,03,15.30
2016,03,29,15,04,15.30
2016,03,29,15,05,15.20
2016,03,29,15,06,15.20
2016,03,29,15,07,15.30
2016,03,29,15,08,15.30
2016,03,29,15,09,15.30
2016,03,29,15,10,15.40
2016,03,29,15,11,15.40
2016,03,29,15,12,15.40
2016,03,29,15,13,15.50
2016,03,29,15,14,15.50
2016,03,29,15,15,15.50
2016,03,29,15,16,15.40
2016,03,29,15,17,15.40
2016,03,29,15,18,15.40
2016,03,29,15,19,15.50
2016,03,29,15,20,15.40
2016,03,29,15,21,15.50
2016,03,29,15,22,15.50
2016,03,29,15,23,15.60
2016,03,29,15,24,15.70
2016,03,29,15,25,15.70
2016,03,29,15,26,15.70
2016,03,29,15,27,15.70
2016,03,29,15,28,15.80
2016,03,29,15,29,15.80
2016,03,29,15,30,15.80
2016,03,29,15,31,15.90
2016,03,29,15,32,15.90
2016,03,29,15,33,16.00
2016,03,29,15,34,16.00
2016,03,29,15,35,16.00
2016,03,29,15,36,16.00
2016,03,29,15,37,16.00
2016,03,29,15,38,16.10
2016,03,29,15,39,16.10
2016,03,29,15,40,16.10
2016,03,29,15,41,16.20
2016,03,29,15,42,16.20
2016,03,29,15,43,16.20
2016,03,29,15,44,16.10
2016,03,29,15,45,16.10
2016,03,29,15,46,16.00
2016,03,29,15,47,15.90
2016,03,29,15,48,15.90
2016,03,29,15,49,15.90
2016,03,29,15,50,15.90
2016,03,29,15,51,15.90
2016,03,29,15,52,15.90
2016,03,29,15,53,15.90
2016,03,29,15,54,15.90
2016,03,29,15,55,15.80
2016,03,29,15,56,15.80
2016,03,29,15,57,15.80
2016,03,29,15,58,15.80
2016,03,29,15,59,15.80
2016,03,29,16,00,15.80
2016,03,29,16,01,15.80
2016,03,29,16,02,15.80
2016,03,29,16,03,15.80
2016,03,29,16,04,15.80
2016,03,29,16,05,15.80
2016,03,29,16,06,15.80
2016,03,29,16,07,15.80
2016,03,29,16,08,15.80
2016,03,29,16,09,15.80
2016,03,29,16,10,15.90
2016,03,29,16,11,15.90
2016,03,29,16,12,15.90
2016,03,29,16,13,15.90
2016,03,29,16,14,15.90
2016,03,29,16,15,16.00
2016,03,29,16,16,16.00
2016,03,29,16,17,16.10
2016,03,29,16,18,16.10
2016,03,29,16,19,16.20
2016,03,29,16,20,16.20
2016,03,29,16,21,16.20
2016,03,29,16,22,16.30
2016,03,29,16,23,16.30
2016,03,29,16,24,16.30
2016,03,29,16,25,16.30
2016,03,29,16,26,16.40
2016,03,29,16,27,16.40
2016,03,29,16,28,16.50
2016,03,29,16,29,16.50
2016,03,29,16,30,16.60
2016,03,29,16,31,16.60
2016,03,29,16,32,16.50
2016,03,29,16,33,16.50
2016,03,29,16,34,16.40
2016,03,29,16,35,16.30
2016,03,29,16,36,16.30
2016,03,29,16,37,16.30
2016,03,29,16,38,16.30
2016,03,29,16,39,16.30
2016,03,29,16,40,16.30
2016,03,29,16,41,16.30
2016,03,29,16,42,16.40
2016,03,29,16,43,16.40
2016,03,29,16,44,16.40
2016,03,29,16,45,16.30
2016,03,29,16,46,16.30
2016,03,29,16,47,16.30
2016,03,29,16,48,16.30
2016,03,29,16,49,16.30
2016,03,29,16,50,16.30
2016,03,29,16,51,16.20
2016,03,29,16,52,16.20
2016,03,29,16,53,16.30
2016,03,29,16,54,16.30
2016,03,29,16,55,16.20
2016,03,29,16,56,16.20
2016,03,29,16,57,16.10
2016,03,29,16,58,16.10
2016,03,29,16,59,16.10
2016,03,29,17,00,16.10
2016,03,29,17,01,16.10
2016,03,29,17,02,16.10
2016,03,29,17,03,16.20
2016,03,29,17,04,16.20
2016,03,29,17,05,16.20
2016,03,29,17,06,16.20
2016,03,29,17,07,16.20
2016,03,29,17,08,16.20
2016,03,29,17,09,16.20
2016,03,29,17,10,16.10
2016,03,29,17,11,16.10
2016,03,29,17,12,16.00
2016,03,29,17,13,16.00
2016,03,29,17,14,16.10
2016,03,29,17,15,16.10
2016,03,29,17,16,16.10
2016,03,29,17,17,16.20
2016,03,29,17,18,16.20
2016,03,29,17,19,16.20
2016,03,29,17,20,16.30
2016,03,29,17,21,16.30
2016,03,29,17,22,16.40
2016,03,29,17,23,16.50
2016,03,29,17,24,16.60
2016,03,29,17,25,16.60
2016,03,29,17,26,16.70
2016,03,29,17,27,16.70
2016,03,29,17,28,16.80
2016,03,29,17,29,16.80
2016,03,29,17,30,16.80
2016,03,29,17,31,16.90
2016,03,29,17,32,16.80
2016,03,29,17,33,16.80
2016,03,29,17,34,16.80
2016,03,29,17,35,16.70
2016,03,29,17,36,16.70
2016,03,29,17,37,16.70
2016,03,29,17,38,16.70
2016,03,29,17,39,16.70
2016,03,29,17,40,16.60
2016,03,29,17,41,16.60
2016,03,29,17,42,16.60